Location: Pabrico
(37.5827°N, 122.0063°W)
Time: 22:15:28
(UTC+00:00)

Cosmos 921 Rocket - Pass Details

Date: 13 April 2024
Orbit: 567 x 626 km, 75.8° (Epoch: 20 May)

Event Time Altitude Azimuth Distance (km) Brightness Sun altitude
Exits shadow 12:19:21 22° 216° (SW) 1,275 4.2 -15.0°
Maximum altitude 12:21:52 57° 288° (WNW) 691 3.0 -14.6°
Drops below altitude 10° 12:26:05 10° 7° (N) 1,928 6.0 -13.8°
Sets 12:28:22 0° 12° (NNE) 2,844 7.0 -13.4°
